Time,TemperatureF,DewpointF,PressureIn,WindDirection,WindDirectionDegrees,WindSpeedMPH,WindSpeedGustMPH,Humidity,HourlyPrecipIn,Conditions,Clouds,dailyrainin,SoftwareType,DateUTC
2013-04-19 00:00:00,66.6,55.3,29.65,South,180,15.0,15.0,67,0.00,BKN,,0.00,WeatherDisplay:10.37,2013-04-19 04:00:00,
2013-04-19 00:01:00,66.6,55.3,29.65,SSW,202,19.9,19.9,67,0.00,BKN,,0.00,WeatherDisplay:10.37,2013-04-19 04:01:00,
2013-04-19 00:02:00,66.6,55.3,29.65,SSW,202,19.6,19.6,67,0.00,BKN,,0.00,WeatherDisplay:10.37,2013-04-19 04:02:00,
2013-04-19 00:03:00,66.6,55.3,29.65,WSW,248,12.7,12.7,67,0.00,BKN,,0.00,WeatherDisplay:10.37,2013-04-19 04:03:00,
2013-04-19 00:08:00,66.4,54.7,29.65,WSW,248,8.1,8.1,66,0.00,BKN,,0.00,WeatherDisplay:10.37,2013-04-19 04:08:00,
2013-04-19 00:13:00,66.4,55.1,29.65,SSW,202,15.4,15.4,67,0.00,BKN,,0.00,WeatherDisplay:10.37,2013-04-19 04:13:00,
2013-04-19 00:18:00,66.6,55.3,29.65,SSW,202,24.2,24.2,67,0.00,BKN,,0.00,WeatherDisplay:10.37,2013-04-19 04:18:00,
2013-04-19 00:24:00,66.6,54.8,29.65,WSW,248,10.5,10.5,66,0.00,BKN,,0.00,WeatherDisplay:10.37,2013-04-19 04:24:00,
2013-04-19 00:29:00,66.4,54.7,29.65,SW,225,10.9,10.9,66,0.00,BKN,,0.00,WeatherDisplay:10.37,2013-04-19 04:29:00,
2013-04-19 00:34:00,66.4,55.1,29.65,West,270,15.0,15.0,67,0.00,BKN,,0.00,WeatherDisplay:10.37,2013-04-19 04:34:00,
2013-04-19 00:39:00,66.4,55.1,29.65,SW,215,7.0,15.0,67,0.00,BKN,,0.00,WeatherDisplay:10.37,2013-04-19 04:39:00,
2013-04-19 00:44:00,66.4,54.7,29.65,SSW,210,8.0,20.0,66,0.00,BKN,,0.00,WeatherDisplay:10.37,2013-04-19 04:44:00,
2013-04-19 00:49:00,66.4,54.7,29.65,SSW,211,9.0,21.0,66,0.00,BKN,,0.00,WeatherDisplay:10.37,2013-04-19 04:49:00,
2013-04-19 00:54:00,66.6,54.8,29.65,SW,215,12.0,20.0,66,0.00,BKN,,0.00,WeatherDisplay:10.37,2013-04-19 04:54:00,
2013-04-19 00:59:00,66.6,54.8,29.65,SW,218,9.0,16.0,66,0.00,BKN,,0.00,WeatherDisplay:10.37,2013-04-19 04:59:00,
2013-04-19 01:04:00,66.6,54.8,29.65,SW,214,8.0,18.0,66,0.00,SCT,,0.00,WeatherDisplay:10.37,2013-04-19 05:04:00,
2013-04-19 01:09:00,66.6,54.8,29.65,SSW,202,17.3,17.3,66,0.00,SCT,,0.00,WeatherDisplay:10.37,2013-04-19 05:09:00,
2013-04-19 01:14:00,66.7,55.0,29.65,SW,217,13.0,23.0,66,0.00,SCT,,0.00,WeatherDisplay:10.37,2013-04-19 05:14:00,
2013-04-19 01:19:00,66.6,54.4,29.65,SW,221,9.0,15.0,65,0.00,SCT,,0.00,WeatherDisplay:10.37,2013-04-19 05:19:00,
2013-04-19 01:24:00,66.6,54.4,29.62,SW,214,7.0,13.0,65,0.00,SCT,,0.00,WeatherDisplay:10.37,2013-04-19 05:24:00,
2013-04-19 01:29:00,66.4,54.3,29.62,SSW,213,9.0,15.0,65,0.00,SCT,,0.00,WeatherDisplay:10.37,2013-04-19 05:29:00,
2013-04-19 01:34:00,66.4,54.3,29.62,SSW,209,10.0,12.0,65,0.00,SCT,,0.00,WeatherDisplay:10.37,2013-04-19 05:34:00,
2013-04-19 01:39:00,66.6,54.4,29.62,SW,219,8.0,19.0,65,0.00,SCT,,0.00,WeatherDisplay:10.37,2013-04-19 05:39:00,
2013-04-19 01:44:00,66.6,54.4,29.62,SW,218,9.0,15.0,65,0.00,SCT,,0.00,WeatherDisplay:10.37,2013-04-19 05:44:00,
2013-04-19 01:49:00,66.6,54.4,29.62,West,270,9.2,9.2,65,0.00,SCT,,0.00,WeatherDisplay:10.37,2013-04-19 05:49:00,
2013-04-19 01:54:00,66.6,54.4,29.62,SW,224,7.0,15.0,65,0.00,SCT,,0.00,WeatherDisplay:10.37,2013-04-19 05:54:00,
2013-04-19 01:59:00,66.7,54.1,29.62,SSW,212,12.0,20.0,64,0.00,SCT,,0.00,WeatherDisplay:10.37,2013-04-19 05:59:00,
2013-04-19 02:04:00,66.6,54.0,29.62,SW,218,9.0,20.0,64,0.00,BKN,,0.00,WeatherDisplay:10.37,2013-04-19 06:04:00,
2013-04-19 02:09:00,66.7,54.2,29.62,WSW,241,10.0,18.0,64,0.00,BKN,,0.00,WeatherDisplay:10.37,2013-04-19 06:09:00,
2013-04-19 02:14:00,66.6,54.0,29.62,WSW,242,9.0,15.0,64,0.00,BKN,,0.00,WeatherDisplay:10.37,2013-04-19 06:14:00,
2013-04-19 02:19:00,66.6,54.0,29.62,SSW,202,6.9,6.9,64,0.00,BKN,,0.00,WeatherDisplay:10.37,2013-04-19 06:19:00,
2013-04-19 02:24:00,66.6,54.0,29.65,WSW,240,7.0,12.0,64,0.00,BKN,,0.00,WeatherDisplay:10.37,2013-04-19 06:24:00,
2013-04-19 02:29:00,66.4,53.8,29.65,South,180,9.2,9.2,64,0.00,BKN,,0.00,WeatherDisplay:10.37,2013-04-19 06:29:00,
2013-04-19 02:34:00,66.4,53.8,29.65,SW,231,6.0,10.0,64,0.00,BKN,,0.00,WeatherDisplay:10.37,2013-04-19 06:34:00,
2013-04-19 02:39:00,66.4,53.8,29.62,SW,236,7.0,14.0,64,0.00,BKN,,0.00,WeatherDisplay:10.37,2013-04-19 06:39:00,
2013-04-19 02:44:00,66.4,53.4,29.62,SSW,202,8.1,8.1,63,0.00,BKN,,0.00,WeatherDisplay:10.37,2013-04-19 06:44:00,
2013-04-19 02:49:00,66.6,53.6,29.62,SW,231,5.0,10.0,63,0.00,BKN,,0.00,WeatherDisplay:10.37,2013-04-19 06:49:00,
2013-04-19 02:54:00,66.6,53.6,29.62,WSW,237,3.0,8.0,63,0.00,BKN,,0.00,WeatherDisplay:10.37,2013-04-19 06:54:00,
2013-04-19 02:59:00,66.4,53.4,29.62,SW,236,3.0,7.0,63,0.00,BKN,,0.00,WeatherDisplay:10.37,2013-04-19 06:59:00,
2013-04-19 03:04:00,66.4,53.4,29.62,SW,229,2.0,7.0,63,0.00,OVC,,0.00,WeatherDisplay:10.37,2013-04-19 07:04:00,
2013-04-19 03:09:00,66.4,53.4,29.62,SW,225,8.0,10.0,63,0.00,OVC,,0.00,WeatherDisplay:10.37,2013-04-19 07:09:00,
2013-04-19 03:14:00,66.4,53.0,29.62,SW,217,8.0,12.0,62,0.00,OVC,,0.00,WeatherDisplay:10.37,2013-04-19 07:14:00,
2013-04-19 03:19:00,66.4,53.0,29.62,SSW,213,5.0,10.0,62,0.00,OVC,,0.00,WeatherDisplay:10.37,2013-04-19 07:19:00,
2013-04-19 03:24:00,66.4,53.0,29.62,SSW,213,5.0,7.0,62,0.00,OVC,,0.00,WeatherDisplay:10.37,2013-04-19 07:24:00,
2013-04-19 03:29:00,66.4,53.0,29.62,SSW,202,6.9,6.9,62,0.00,OVC,,0.00,WeatherDisplay:10.37,2013-04-19 07:29:00,
2013-04-19 03:34:00,66.4,53.0,29.62,SW,219,2.0,5.0,62,0.00,OVC,,0.00,WeatherDisplay:10.37,2013-04-19 07:34:00,
2013-04-19 03:39:00,66.4,53.0,29.62,SSW,202,4.6,4.6,62,0.00,OVC,,0.00,WeatherDisplay:10.37,2013-04-19 07:39:00,
2013-04-19 03:44:00,66.2,52.8,29.62,SSW,213,3.0,6.0,62,0.00,OVC,,0.00,WeatherDisplay:10.37,2013-04-19 07:44:00,
2013-04-19 03:49:00,66.0,52.6,29.62,SSW,199,2.0,6.0,62,0.00,OVC,,0.00,WeatherDisplay:10.37,2013-04-19 07:49:00,
2013-04-19 03:54:00,65.8,52.5,29.62,SSW,202,2.3,2.3,62,0.00,OVC,,0.00,WeatherDisplay:10.37,2013-04-19 07:54:00,
2013-04-19 03:59:00,65.8,52.9,29.62,SSW,207,6.0,7.0,63,0.00,OVC,,0.00,WeatherDisplay:10.37,2013-04-19 07:59:00,
2013-04-19 04:04:00,65.8,52.9,29.62,SSW,194,6.0,8.0,63,0.00,OVC,,0.00,WeatherDisplay:10.37,2013-04-19 08:04:00,
2013-04-19 04:09:00,65.7,52.7,29.59,WSW,248,4.6,4.6,63,0.00,OVC,,0.00,WeatherDisplay:10.37,2013-04-19 08:09:00,
2013-04-19 04:14:00,65.7,52.7,29.59,SW,219,5.0,10.0,63,0.00,OVC,,0.00,WeatherDisplay:10.37,2013-04-19 08:14:00,
2013-04-19 04:19:00,65.8,52.9,29.59,SSW,211,5.0,9.0,63,0.00,OVC,,0.00,WeatherDisplay:10.37,2013-04-19 08:19:00,
2013-04-19 04:24:00,66.0,53.0,29.56,SSW,196,9.0,15.0,63,0.00,OVC,,0.00,WeatherDisplay:10.37,2013-04-19 08:24:00,
2013-04-19 04:29:00,66.2,52.8,29.56,SSW,199,6.0,13.0,62,0.00,OVC,,0.00,WeatherDisplay:10.37,2013-04-19 08:29:00,
2013-04-19 04:34:00,66.2,52.8,29.56,SSW,211,7.0,15.0,62,0.00,OVC,,0.00,WeatherDisplay:10.37,2013-04-19 08:34:00,
2013-04-19 04:39:00,66.0,52.6,29.56,WSW,248,10.4,10.4,62,0.00,OVC,,0.00,WeatherDisplay:10.37,2013-04-19 08:39:00,
2013-04-19 04:44:00,65.8,52.5,29.56,SW,219,5.0,13.0,62,0.00,OVC,,0.00,WeatherDisplay:10.37,2013-04-19 08:44:00,
2013-04-19 04:49:00,65.8,52.9,29.56,SW,215,6.0,20.0,63,0.00,OVC,,0.00,WeatherDisplay:10.37,2013-04-19 08:49:00,
2013-04-19 04:54:00,65.8,52.9,29.56,SSW,211,6.0,13.0,63,0.00,OVC,,0.00,WeatherDisplay:10.37,2013-04-19 08:54:00,
2013-04-19 04:59:00,65.8,52.8,29.56,SSW,208,7.0,13.0,63,0.00,OVC,,0.00,WeatherDisplay:10.37,2013-04-19 08:59:00,
2013-04-19 05:04:00,65.7,52.7,29.56,WSW,248,8.1,8.1,63,0.00,OVC,,0.00,WeatherDisplay:10.37,2013-04-19 09:04:00,
2013-04-19 05:09:00,65.7,52.7,29.56,SW,217,12.0,15.0,63,0.00,OVC,,0.00,WeatherDisplay:10.37,2013-04-19 09:09:00,
2013-04-19 05:14:00,65.7,52.7,29.56,SW,219,6.0,15.0,63,0.00,OVC,,0.00,WeatherDisplay:10.37,2013-04-19 09:14:00,
2013-04-19 05:19:00,65.7,52.7,29.56,SW,224,9.0,15.0,63,0.00,OVC,,0.00,WeatherDisplay:10.37,2013-04-19 09:19:00,
2013-04-19 05:24:00,65.7,52.7,29.56,SSW,202,8.0,15.0,63,0.00,OVC,,0.00,WeatherDisplay:10.37,2013-04-19 09:24:00,
2013-04-19 05:29:00,65.7,52.7,29.56,SSW,201,8.0,14.0,63,0.00,OVC,,0.00,WeatherDisplay:10.37,2013-04-19 09:29:00,
2013-04-19 05:34:00,65.5,52.5,29.56,SSW,202,8.1,8.1,63,0.00,OVC,,0.00,WeatherDisplay:10.37,2013-04-19 09:34:00,
2013-04-19 05:39:00,65.7,52.7,29.56,SW,222,5.0,13.0,63,0.00,OVC,,0.00,WeatherDisplay:10.37,2013-04-19 09:39:00,
2013-04-19 05:45:00,65.5,53.0,29.56,SSW,202,10.4,10.4,64,0.00,OVC,,0.00,WeatherDisplay:10.37,2013-04-19 09:45:00,
2013-04-19 05:50:00,65.5,53.0,29.56,WSW,248,9.2,9.2,64,0.00,OVC,,0.00,WeatherDisplay:10.37,2013-04-19 09:50:00,
2013-04-19 05:55:00,65.5,53.0,29.56,ENE,68,9.2,9.2,64,0.00,OVC,,0.00,WeatherDisplay:10.37,2013-04-19 09:55:00,
2013-04-19 06:00:00,65.5,53.0,29.56,SW,225,11.5,11.5,64,0.00,CLR,,0.00,WeatherDisplay:10.37,2013-04-19 10:00:00,
2013-04-19 06:06:00,65.3,52.8,29.56,SSW,202,9.2,9.2,64,0.00,CLR,,0.00,WeatherDisplay:10.37,2013-04-19 10:06:00,
2013-04-19 06:11:00,65.3,52.8,29.56,SW,225,8.1,8.1,64,0.00,CLR,,0.00,WeatherDisplay:10.37,2013-04-19 10:11:00,
2013-04-19 06:16:00,65.1,53.1,29.56,SSW,202,8.1,8.1,65,0.00,CLR,,0.00,WeatherDisplay:10.37,2013-04-19 10:16:00,
2013-04-19 06:21:00,65.1,53.1,29.56,SW,225,9.2,9.2,65,0.00,CLR,,0.00,WeatherDisplay:10.37,2013-04-19 10:21:00,
2013-04-19 06:26:00,64.9,53.3,29.56,WSW,248,8.5,8.5,66,0.00,CLR,,0.00,WeatherDisplay:10.37,2013-04-19 10:26:00,
2013-04-19 06:31:00,64.9,53.3,29.56,SSW,202,12.7,12.7,66,0.00,CLR,,0.00,WeatherDisplay:10.37,2013-04-19 10:31:00,
2013-04-19 06:37:00,64.9,53.3,29.53,SSW,202,8.1,8.1,66,0.00,CLR,,0.00,WeatherDisplay:10.37,2013-04-19 10:37:00,
2013-04-19 06:42:00,64.9,53.3,29.53,SSW,202,13.8,13.8,66,0.00,CLR,,0.00,WeatherDisplay:10.37,2013-04-19 10:42:00,
2013-04-19 06:47:00,64.9,53.3,29.53,SSW,202,8.1,8.1,66,0.00,CLR,,0.00,WeatherDisplay:10.37,2013-04-19 10:47:00,
2013-04-19 06:52:00,64.8,53.1,29.56,SSW,202,8.1,8.1,66,0.00,CLR,,0.00,WeatherDisplay:10.37,2013-04-19 10:52:00,
2013-04-19 06:58:00,64.8,53.5,29.56,SSW,202,8.1,8.1,67,0.00,CLR,,0.00,WeatherDisplay:10.37,2013-04-19 10:58:00,
2013-04-19 07:03:00,64.9,53.7,29.56,SSW,202,10.4,10.4,67,0.00,OVC,,0.00,WeatherDisplay:10.37,2013-04-19 11:03:00,
2013-04-19 07:08:00,64.9,53.7,29.56,WSW,248,13.8,13.8,67,0.00,OVC,,0.00,WeatherDisplay:10.37,2013-04-19 11:08:00,
2013-04-19 07:13:00,65.1,53.5,29.56,WSW,248,4.9,4.9,66,0.00,OVC,,0.00,WeatherDisplay:10.37,2013-04-19 11:13:00,
2013-04-19 07:18:00,65.1,53.5,29.56,East,90,8.1,8.1,66,0.00,OVC,,0.00,WeatherDisplay:10.37,2013-04-19 11:18:00,
2013-04-19 07:23:00,65.3,53.6,29.56,SW,225,8.1,8.1,66,0.00,OVC,,0.00,WeatherDisplay:10.37,2013-04-19 11:23:00,
2013-04-19 07:29:00,65.5,53.4,29.56,SSE,158,15.0,15.0,65,0.00,OVC,,0.00,WeatherDisplay:10.37,2013-04-19 11:29:00,
2013-04-19 07:34:00,65.7,53.6,29.56,WSW,248,9.2,9.2,65,0.00,OVC,,0.00,WeatherDisplay:10.37,2013-04-19 11:34:00,
2013-04-19 07:39:00,65.8,53.7,29.56,SSE,158,13.8,13.8,65,0.00,OVC,,0.00,WeatherDisplay:10.37,2013-04-19 11:39:00,
2013-04-19 07:44:00,66.0,53.5,29.56,SW,225,11.5,11.5,64,0.00,OVC,,0.00,WeatherDisplay:10.37,2013-04-19 11:44:00,
2013-04-19 07:49:00,66.0,53.5,29.56,SSW,212,7.0,12.0,64,0.00,OVC,,0.00,WeatherDisplay:10.37,2013-04-19 11:49:00,
2013-04-19 07:54:00,66.3,53.8,29.53,SSW,208,7.0,13.0,64,0.00,OVC,,0.00,WeatherDisplay:10.37,2013-04-19 11:54:00,
2013-04-19 07:59:00,66.5,53.9,29.53,SSW,208,6.0,10.0,64,0.00,OVC,,0.00,WeatherDisplay:10.37,2013-04-19 11:59:00,
2013-04-19 08:04:00,66.7,54.2,29.53,SW,222,3.0,10.0,64,0.00,OVC,,0.00,WeatherDisplay:10.37,2013-04-19 12:04:00,
2013-04-19 08:09:00,66.9,53.9,29.53,SW,220,6.0,12.0,63,0.00,OVC,,0.00,WeatherDisplay:10.37,2013-04-19 12:09:00,
2013-04-19 08:14:00,66.9,53.9,29.53,SW,215,6.0,11.0,63,0.00,OVC,,0.00,WeatherDisplay:10.37,2013-04-19 12:14:00,
2013-04-19 08:19:00,66.9,53.9,29.53,SW,214,3.0,10.0,63,0.00,OVC,,0.00,WeatherDisplay:10.37,2013-04-19 12:19:00,
2013-04-19 08:24:00,66.9,53.9,29.53,SSW,201,5.0,11.0,63,0.00,OVC,,0.00,WeatherDisplay:10.37,2013-04-19 12:24:00,
2013-04-19 08:29:00,66.9,53.9,29.53,SSW,197,3.0,7.0,63,0.00,OVC,,0.00,WeatherDisplay:10.37,2013-04-19 12:29:00,
2013-04-19 08:34:00,67.1,53.6,29.53,SSW,203,6.0,15.0,62,0.00,OVC,,0.00,WeatherDisplay:10.37,2013-04-19 12:34:00,
2013-04-19 08:39:00,67.3,53.8,29.53,SSW,194,3.0,9.0,62,0.00,OVC,,0.00,WeatherDisplay:10.37,2013-04-19 12:39:00,
2013-04-19 08:44:00,67.3,53.8,29.53,South,191,3.0,9.0,62,0.00,OVC,,0.00,WeatherDisplay:10.37,2013-04-19 12:44:00,
2013-04-19 08:49:00,67.3,53.8,29.53,SSW,197,3.0,9.0,62,0.00,OVC,,0.00,WeatherDisplay:10.37,2013-04-19 12:49:00,
2013-04-19 08:54:00,67.5,54.0,29.53,SSW,194,5.0,8.0,62,0.00,OVC,,0.00,WeatherDisplay:10.37,2013-04-19 12:54:00,
2013-04-19 08:59:00,67.6,53.7,29.53,SSE,158,10.7,10.7,61,0.00,OVC,,0.00,WeatherDisplay:10.37,2013-04-19 12:59:00,
2013-04-19 09:04:00,67.6,53.7,29.53,South,186,3.0,10.0,61,0.00,OVC,,0.00,WeatherDisplay:10.37,2013-04-19 13:04:00,
2013-04-19 09:09:00,67.6,53.7,29.50,SSW,203,3.0,6.0,61,0.00,OVC,,0.00,WeatherDisplay:10.37,2013-04-19 13:09:00,
2013-04-19 09:14:00,67.6,53.3,29.50,SSW,193,6.0,7.0,60,0.00,OVC,,0.00,WeatherDisplay:10.37,2013-04-19 13:14:00,
2013-04-19 09:19:00,67.6,53.3,29.50,SSW,195,5.0,8.0,60,0.00,OVC,,0.00,WeatherDisplay:10.37,2013-04-19 13:19:00,
2013-04-19 09:24:00,67.8,53.4,29.50,SSW,202,6.9,6.9,60,0.00,OVC,,0.00,WeatherDisplay:10.37,2013-04-19 13:24:00,
2013-04-19 09:30:00,68.0,53.1,29.50,WNW,292,10.4,10.4,59,0.00,OVC,,0.00,WeatherDisplay:10.37,2013-04-19 13:30:00,
2013-04-19 09:35:00,68.0,53.1,29.50,South,180,9.2,9.2,59,0.00,OVC,,0.00,WeatherDisplay:10.37,2013-04-19 13:35:00,
2013-04-19 09:40:00,68.0,52.7,29.50,South,180,5.8,5.8,58,0.00,OVC,,0.00,WeatherDisplay:10.37,2013-04-19 13:40:00,
2013-04-19 09:45:00,68.2,52.8,29.50,WSW,248,10.4,10.4,58,0.00,OVC,,0.00,WeatherDisplay:10.37,2013-04-19 13:45:00,
2013-04-19 09:50:00,68.2,52.8,29.47,WSW,248,12.7,12.7,58,0.00,OVC,,0.00,WeatherDisplay:10.37,2013-04-19 13:50:00,
2013-04-19 09:56:00,68.2,52.8,29.47,South,180,11.5,11.5,58,0.00,OVC,,0.00,WeatherDisplay:10.37,2013-04-19 13:56:00,
2013-04-19 10:01:00,68.2,53.3,29.47,WSW,248,5.9,5.9,59,0.00,OVC,,0.00,WeatherDisplay:10.37,2013-04-19 14:01:00,
2013-04-19 10:06:00,68.2,53.3,29.50,SSE,158,4.6,4.6,59,0.00,OVC,,0.00,WeatherDisplay:10.37,2013-04-19 14:06:00,
2013-04-19 10:12:00,68.5,53.6,29.50,SSW,202,8.1,8.1,59,0.00,OVC,,0.00,WeatherDisplay:10.37,2013-04-19 14:12:00,
2013-04-19 10:17:00,68.7,53.3,29.50,WSW,248,12.7,12.7,58,0.00,OVC,,0.00,WeatherDisplay:10.37,2013-04-19 14:17:00,
2013-04-19 10:22:00,68.9,53.0,29.44,SSW,202,8.1,8.1,57,0.00,OVC,,0.00,WeatherDisplay:10.37,2013-04-19 14:22:00,
2013-04-19 10:27:00,69.1,53.2,29.44,SSW,202,4.6,5.4,57,0.00,OVC,,0.00,WeatherDisplay:10.37,2013-04-19 14:27:00,
2013-04-19 10:32:00,69.3,52.9,29.44,SSW,202,6.9,6.9,56,0.00,OVC,,0.00,WeatherDisplay:10.37,2013-04-19 14:32:00,
2013-04-19 10:37:00,69.6,53.2,29.44,SSW,202,9.2,9.2,56,0.00,OVC,,0.00,WeatherDisplay:10.37,2013-04-19 14:37:00,
2013-04-19 10:42:00,70.2,53.2,29.44,SSW,202,10.4,10.4,55,0.00,OVC,,0.00,WeatherDisplay:10.37,2013-04-19 14:42:00,
2013-04-19 10:48:00,70.3,52.9,29.44,SSW,202,9.2,9.2,54,0.00,OVC,,0.00,WeatherDisplay:10.37,2013-04-19 14:48:00,
2013-04-19 10:53:00,70.7,53.2,29.44,SSW,202,6.9,6.9,54,0.00,OVC,,0.00,WeatherDisplay:10.37,2013-04-19 14:53:00,
2013-04-19 10:58:00,71.1,52.5,29.44,SSW,202,10.4,10.4,52,0.00,OVC,,0.00,WeatherDisplay:10.37,2013-04-19 14:58:00,
2013-04-19 11:03:00,71.1,52.5,29.44,SSW,202,10.4,10.4,52,0.00,OVC,,0.00,WeatherDisplay:10.37,2013-04-19 15:03:00,
2013-04-19 11:08:00,70.7,52.2,29.44,WSW,248,10.4,10.4,52,0.00,OVC,,0.00,WeatherDisplay:10.37,2013-04-19 15:08:00,
2013-04-19 11:13:00,70.5,52.0,29.44,WSW,248,8.1,8.1,52,0.00,OVC,,0.00,WeatherDisplay:10.37,2013-04-19 15:13:00,
2013-04-19 11:19:00,70.5,52.6,29.44,SSW,202,9.2,9.2,53,0.00,OVC,,0.00,WeatherDisplay:10.37,2013-04-19 15:19:00,
2013-04-19 11:24:00,70.9,52.9,29.41,WSW,248,6.2,6.2,53,0.00,OVC,,0.00,WeatherDisplay:10.37,2013-04-19 15:24:00,
2013-04-19 11:29:00,71.1,52.5,29.41,South,185,5.0,9.0,52,0.00,OVC,,0.00,WeatherDisplay:10.37,2013-04-19 15:29:00,
2013-04-19 11:34:00,71.1,53.1,29.41,South,185,5.0,8.0,53,0.00,OVC,,0.00,WeatherDisplay:10.37,2013-04-19 15:34:00,
2013-04-19 11:39:00,71.2,52.2,29.44,SSW,202,8.0,13.0,51,0.00,OVC,,0.00,WeatherDisplay:10.37,2013-04-19 15:39:00,
2013-04-19 11:44:00,71.2,52.2,29.44,SSW,209,7.0,10.0,51,0.00,OVC,,0.00,WeatherDisplay:10.37,2013-04-19 15:44:00,
2013-04-19 11:49:00,71.2,52.2,29.44,SSW,196,6.0,10.0,51,0.00,OVC,,0.00,WeatherDisplay:10.37,2013-04-19 15:49:00,
2013-04-19 11:54:00,71.4,53.4,29.41,South,178,7.0,13.0,53,0.00,OVC,,0.00,WeatherDisplay:10.37,2013-04-19 15:54:00,
2013-04-19 11:59:00,71.4,52.9,29.41,South,171,7.0,12.0,52,0.00,OVC,,0.00,WeatherDisplay:10.37,2013-04-19 15:59:00,
2013-04-19 12:04:00,71.4,53.4,29.41,South,187,5.0,8.0,53,0.00,-RA,,0.00,WeatherDisplay:10.37,2013-04-19 16:04:00,
2013-04-19 12:09:00,71.4,53.9,29.38,SSW,200,6.0,8.0,54,0.00,-RA,,0.00,WeatherDisplay:10.37,2013-04-19 16:09:00,
2013-04-19 12:14:00,71.3,53.8,29.38,SSW,200,5.0,9.0,54,0.00,-RA,,0.00,WeatherDisplay:10.37,2013-04-19 16:14:00,
2013-04-19 12:19:00,71.7,53.1,29.38,SSW,212,10.0,17.0,52,0.00,-RA,,0.00,WeatherDisplay:10.37,2013-04-19 16:19:00,
2013-04-19 12:24:00,72.1,53.0,29.38,SW,220,9.0,13.0,51,0.00,-RA,,0.00,WeatherDisplay:10.37,2013-04-19 16:24:00,
2013-04-19 12:29:00,72.7,52.4,29.38,SSW,203,6.0,12.0,49,0.00,-RA,,0.00,WeatherDisplay:10.37,2013-04-19 16:29:00,
2013-04-19 12:34:00,73.2,52.9,29.38,SSW,202,6.0,16.0,49,0.00,-RA,,0.00,WeatherDisplay:10.37,2013-04-19 16:34:00,
2013-04-19 12:39:00,73.8,53.4,29.38,SSW,203,7.0,10.0,49,0.00,-RA,,0.00,WeatherDisplay:10.37,2013-04-19 16:39:00,
2013-04-19 12:44:00,73.9,53.0,29.38,SSW,207,8.0,17.0,48,0.00,-RA,,0.00,WeatherDisplay:10.37,2013-04-19 16:44:00,
2013-04-19 12:49:00,73.6,52.2,29.38,SSW,213,7.0,12.0,47,0.00,-RA,,0.00,WeatherDisplay:10.37,2013-04-19 16:49:00,
2013-04-19 12:54:00,73.6,51.6,29.35,SSW,211,7.0,19.0,46,0.00,-RA,,0.00,WeatherDisplay:10.37,2013-04-19 16:54:00,
2013-04-19 12:59:00,73.6,52.1,29.35,SSW,209,7.0,16.0,47,0.00,-RA,,0.00,WeatherDisplay:10.37,2013-04-19 16:59:00,
2013-04-19 13:04:00,73.4,52.5,29.35,SW,215,9.0,15.0,48,0.00,OVC,,0.00,WeatherDisplay:10.37,2013-04-19 17:04:00,
2013-04-19 13:09:00,73.4,52.5,29.38,SSW,212,8.0,14.0,48,0.00,OVC,,0.00,WeatherDisplay:10.37,2013-04-19 17:09:00,
2013-04-19 13:14:00,73.2,52.3,29.38,SSW,205,7.0,15.0,48,0.00,OVC,,0.00,WeatherDisplay:10.37,2013-04-19 17:14:00,
2013-04-19 13:19:00,73.0,52.2,29.38,ESE,112,9.2,9.2,48,0.00,OVC,,0.00,WeatherDisplay:10.37,2013-04-19 17:19:00,
2013-04-19 13:24:00,72.9,52.6,29.32,SSW,196,10.0,16.0,49,0.00,OVC,,0.00,WeatherDisplay:10.37,2013-04-19 17:24:00,
2013-04-19 13:29:00,72.3,53.7,29.32,SSW,207,14.0,23.0,52,0.00,OVC,,0.00,WeatherDisplay:10.37,2013-04-19 17:29:00,
2013-04-19 13:34:00,72.1,54.1,29.32,SW,226,9.0,17.0,53,0.00,OVC,,0.00,WeatherDisplay:10.37,2013-04-19 17:34:00,
2013-04-19 13:39:00,72.0,54.4,29.32,SW,218,6.0,14.0,54,0.00,OVC,,0.00,WeatherDisplay:10.37,2013-04-19 17:39:00,
2013-04-19 13:44:00,72.0,54.9,29.32,SSW,194,7.0,10.0,55,0.00,OVC,,0.00,WeatherDisplay:10.37,2013-04-19 17:44:00,
2013-04-19 13:49:00,71.9,54.3,29.32,SW,217,9.0,21.0,54,0.00,OVC,,0.00,WeatherDisplay:10.37,2013-04-19 17:49:00,
2013-04-19 13:54:00,72.4,54.3,29.32,SW,232,9.0,22.0,53,0.00,OVC,,0.00,WeatherDisplay:10.37,2013-04-19 17:54:00,
2013-04-19 13:59:00,73.3,54.1,29.32,SSW,212,9.0,19.0,51,0.00,OVC,,0.00,WeatherDisplay:10.37,2013-04-19 17:59:00,
2013-04-19 14:04:00,73.6,53.8,29.32,SW,223,10.0,19.0,50,0.00,OVC,,0.00,WeatherDisplay:10.37,2013-04-19 18:04:00,
2013-04-19 14:09:00,73.6,53.2,29.29,SW,235,14.0,16.0,49,0.00,OVC,,0.00,WeatherDisplay:10.37,2013-04-19 18:09:00,
2013-04-19 14:14:00,73.6,52.7,29.29,SW,219,14.0,19.0,48,0.00,OVC,,0.00,WeatherDisplay:10.37,2013-04-19 18:14:00,
2013-04-19 14:19:00,73.6,53.8,29.29,SSW,208,6.0,15.0,50,0.00,OVC,,0.00,WeatherDisplay:10.37,2013-04-19 18:19:00,
2013-04-19 14:24:00,73.4,53.0,29.32,SSW,212,8.0,21.0,49,0.00,OVC,,0.00,WeatherDisplay:10.37,2013-04-19 18:24:00,
2013-04-19 14:29:00,73.0,52.7,29.32,SW,218,9.0,20.0,49,0.00,OVC,,0.00,WeatherDisplay:10.37,2013-04-19 18:29:00,
2013-04-19 14:34:00,72.8,52.5,29.32,SW,220,14.0,29.0,49,0.00,OVC,,0.00,WeatherDisplay:10.37,2013-04-19 18:34:00,
2013-04-19 14:39:00,71.8,51.6,29.32,WSW,247,12.0,23.0,49,0.00,OVC,,0.00,WeatherDisplay:10.37,2013-04-19 18:39:00,
2013-04-19 14:44:00,66.2,44.2,29.32,WNW,285,12.0,18.0,45,0.00,OVC,,0.00,WeatherDisplay:10.37,2013-04-19 18:44:00,
2013-04-19 14:49:00,62.4,42.5,29.32,NW,315,9.0,17.0,48,0.00,OVC,,0.00,WeatherDisplay:10.37,2013-04-19 18:49:00,
2013-04-19 14:54:00,59.3,40.6,29.38,NW,312,13.0,23.0,50,0.00,OVC,,0.00,WeatherDisplay:10.37,2013-04-19 18:54:00,
2013-04-19 14:59:00,56.2,39.8,29.38,NW,316,10.0,22.0,54,0.00,OVC,,0.00,WeatherDisplay:10.37,2013-04-19 18:59:00,
2013-04-19 15:04:00,54.6,39.2,29.38,NW,311,10.0,18.0,56,0.00,OVC,,0.00,WeatherDisplay:10.37,2013-04-19 19:04:00,
2013-04-19 15:09:00,53.3,39.4,29.38,WNW,295,10.0,24.0,59,0.00,OVC,,0.00,WeatherDisplay:10.37,2013-04-19 19:09:00,
2013-04-19 15:14:00,52.5,39.9,29.38,WNW,292,7.0,18.0,62,0.00,OVC,,0.00,WeatherDisplay:10.37,2013-04-19 19:14:00,
2013-04-19 15:19:00,51.4,38.8,29.38,West,280,13.0,26.0,62,0.00,OVC,,0.00,WeatherDisplay:10.37,2013-04-19 19:19:00,
2013-04-19 15:24:00,50.5,38.8,29.41,WNW,296,14.0,22.0,64,0.00,OVC,,0.00,WeatherDisplay:10.37,2013-04-19 19:24:00,
2013-04-19 15:29:00,50.2,38.5,29.41,NW,309,12.0,18.0,64,0.00,OVC,,0.00,WeatherDisplay:10.37,2013-04-19 19:29:00,
2013-04-19 15:34:00,50.2,39.3,29.41,NW,309,9.0,20.0,66,0.00,OVC,,0.00,WeatherDisplay:10.37,2013-04-19 19:34:00,
2013-04-19 15:39:00,50.4,40.6,29.44,WNW,293,7.0,13.0,69,0.00,OVC,,0.00,WeatherDisplay:10.37,2013-04-19 19:39:00,
2013-04-19 15:44:00,50.3,40.1,29.44,West,281,13.0,23.0,68,0.00,OVC,,0.00,WeatherDisplay:10.37,2013-04-19 19:44:00,
2013-04-19 15:49:00,49.5,38.2,29.44,NW,306,9.0,24.0,65,0.00,OVC,,0.00,WeatherDisplay:10.37,2013-04-19 19:49:00,
2013-04-19 15:54:00,48.9,38.4,29.44,WNW,300,13.0,25.0,67,0.00,OVC,,0.00,WeatherDisplay:10.37,2013-04-19 19:54:00,
2013-04-19 16:00:00,48.9,38.4,29.44,West,270,11.2,11.2,67,0.00,OVC,,0.00,WeatherDisplay:10.37,2013-04-19 20:00:00,
2013-04-19 16:05:00,48.4,37.5,29.44,WNW,292,23.0,23.0,66,0.00,OVC,,0.00,WeatherDisplay:10.37,2013-04-19 20:05:00,
2013-04-19 16:10:00,48.0,36.8,29.44,WNW,292,21.9,21.9,65,0.00,OVC,,0.00,WeatherDisplay:10.37,2013-04-19 20:10:00,
2013-04-19 16:15:00,47.5,37.1,29.44,WNW,292,12.7,12.7,67,0.00,OVC,,0.00,WeatherDisplay:10.37,2013-04-19 20:15:00,
2013-04-19 16:20:00,47.1,37.8,29.47,WNW,292,12.7,12.7,70,0.00,OVC,,0.00,WeatherDisplay:10.37,2013-04-19 20:20:00,
2013-04-19 16:26:00,46.4,37.9,29.47,NNW,338,24.2,24.2,72,0.00,OVC,,0.00,WeatherDisplay:10.37,2013-04-19 20:26:00,
2013-04-19 16:31:00,46.4,38.6,29.47,NNW,338,18.4,18.4,74,0.00,OVC,,0.00,WeatherDisplay:10.37,2013-04-19 20:31:00,
2013-04-19 16:36:00,45.7,37.5,29.50,West,270,17.3,17.3,73,0.00,OVC,,0.00,WeatherDisplay:10.37,2013-04-19 20:36:00,
2013-04-19 16:41:00,45.3,37.5,29.50,NNW,338,21.9,21.9,74,0.00,OVC,,0.00,WeatherDisplay:10.37,2013-04-19 20:41:00,
2013-04-19 16:46:00,45.0,38.2,29.50,WNW,292,16.1,16.1,77,0.04,RA,,0.04,WeatherDisplay:10.37,2013-04-19 20:46:00,
2013-04-19 16:52:00,44.4,38.6,29.50,WNW,292,17.3,17.3,80,0.04,RA,,0.04,WeatherDisplay:10.37,2013-04-19 20:52:00,
2013-04-19 16:57:00,44.2,38.8,29.50,WNW,292,13.8,13.8,81,0.04,OVC,,0.04,WeatherDisplay:10.37,2013-04-19 20:57:00,
2013-04-19 17:02:00,44.2,38.5,29.50,WSW,248,16.1,16.1,80,0.04,-RA,,0.04,WeatherDisplay:10.37,2013-04-19 21:02:00,
2013-04-19 17:07:00,43.9,38.1,29.53,WNW,292,18.4,18.4,80,0.04,-RA,,0.04,WeatherDisplay:10.37,2013-04-19 21:07:00,
2013-04-19 17:12:00,43.7,37.9,29.53,WNW,292,10.7,10.7,80,0.04,-RA,,0.04,WeatherDisplay:10.37,2013-04-19 21:12:00,
2013-04-19 17:17:00,43.2,37.7,29.53,SW,225,17.3,17.3,81,0.04,-RA,,0.04,WeatherDisplay:10.37,2013-04-19 21:17:00,
2013-04-19 17:22:00,43.0,37.5,29.53,WNW,292,12.7,12.7,81,0.04,-RA,,0.04,WeatherDisplay:10.37,2013-04-19 21:22:00,
2013-04-19 17:28:00,42.8,37.4,29.53,WSW,248,17.3,17.3,81,0.08,-RA,,0.08,WeatherDisplay:10.37,2013-04-19 21:28:00,
2013-04-19 17:33:00,42.4,37.6,29.53,WNW,292,11.5,11.5,83,0.13,-RA,,0.13,WeatherDisplay:10.37,2013-04-19 21:33:00,
2013-04-19 17:38:00,42.3,37.8,29.56,NW,315,10.4,10.4,84,0.13,-RA,,0.13,WeatherDisplay:10.37,2013-04-19 21:38:00,
2013-04-19 17:43:00,42.3,37.8,29.56,WNW,292,16.1,16.1,84,0.17,-RA,,0.17,WeatherDisplay:10.37,2013-04-19 21:43:00,
2013-04-19 17:48:00,42.1,37.3,29.56,WNW,292,10.7,12.3,83,0.13,-RA,,0.17,WeatherDisplay:10.37,2013-04-19 21:48:00,
2013-04-19 17:53:00,42.1,37.0,29.53,WNW,292,17.3,17.3,82,0.13,-RA,,0.17,WeatherDisplay:10.37,2013-04-19 21:53:00,
2013-04-19 17:58:00,42.3,37.2,29.53,WNW,292,15.0,15.0,82,0.13,-RA,,0.17,WeatherDisplay:10.37,2013-04-19 21:58:00,
2013-04-19 18:03:00,42.4,37.3,29.53,ENE,68,17.3,17.3,82,0.13,-RA,,0.17,WeatherDisplay:10.37,2013-04-19 22:03:00,
2013-04-19 18:09:00,42.8,37.1,29.56,WNW,292,14.3,14.3,80,0.17,-RA,,0.21,WeatherDisplay:10.37,2013-04-19 22:09:00,
2013-04-19 18:14:00,42.8,36.4,29.56,NW,315,22.8,22.8,78,0.17,-RA,,0.21,WeatherDisplay:10.37,2013-04-19 22:14:00,
2013-04-19 18:19:00,42.8,35.8,29.56,West,270,18.4,18.4,76,0.17,-RA,,0.21,WeatherDisplay:10.37,2013-04-19 22:19:00,
2013-04-19 18:24:00,42.8,35.4,29.53,West,270,13.8,13.8,75,0.17,-RA,,0.21,WeatherDisplay:10.37,2013-04-19 22:24:00,
2013-04-19 18:29:00,42.8,34.7,29.53,WNW,292,13.8,13.8,73,0.13,-RA,,0.21,WeatherDisplay:10.37,2013-04-19 22:29:00,
2013-04-19 18:34:00,43.0,34.6,29.53,NW,315,12.7,12.7,72,0.08,-RA,,0.21,WeatherDisplay:10.37,2013-04-19 22:34:00,
2013-04-19 18:40:00,43.2,34.4,29.56,WNW,292,24.2,24.2,71,0.08,-RA,,0.21,WeatherDisplay:10.37,2013-04-19 22:40:00,
2013-04-19 18:45:00,43.2,33.7,29.56,WNW,293,15.0,28.0,69,0.00,-RA,,0.21,WeatherDisplay:10.37,2013-04-19 22:45:00,
2013-04-19 18:50:00,43.2,32.9,29.56,WNW,293,13.0,28.0,67,0.00,-RA,,0.21,WeatherDisplay:10.37,2013-04-19 22:50:00,
2013-04-19 18:55:00,43.2,33.3,29.56,WNW,292,9.0,15.0,68,0.00,-RA,,0.21,WeatherDisplay:10.37,2013-04-19 22:55:00,
2013-04-19 19:00:00,43.2,32.6,29.56,West,270,31.1,31.1,66,0.04,-RA,,0.21,WeatherDisplay:10.37,2013-04-19 23:00:00,
2013-04-19 19:05:00,43.0,32.8,29.56,WSW,248,16.1,16.1,67,0.04,-RA,,0.21,WeatherDisplay:10.37,2013-04-19 23:05:00,
2013-04-19 19:10:00,43.0,32.0,29.56,West,270,23.0,23.0,65,0.00,-RA,,0.21,WeatherDisplay:10.37,2013-04-19 23:10:00,
2013-04-19 19:15:00,43.0,32.0,29.56,NW,315,23.0,23.0,65,0.00,-RA,,0.21,WeatherDisplay:10.37,2013-04-19 23:15:00,
2013-04-19 19:20:00,43.0,31.6,29.56,WSW,248,13.8,13.8,64,0.00,-RA,,0.21,WeatherDisplay:10.37,2013-04-19 23:20:00,
2013-04-19 19:25:00,43.0,31.6,29.59,SSW,202,19.6,19.6,64,0.00,-RA,,0.21,WeatherDisplay:10.37,2013-04-19 23:25:00,
2013-04-19 19:31:00,43.0,30.8,29.59,WNW,292,17.3,17.3,62,0.00,-RA,,0.21,WeatherDisplay:10.37,2013-04-19 23:31:00,
2013-04-19 19:36:00,43.0,30.8,29.59,WNW,292,17.3,17.3,62,0.00,-RA,,0.21,WeatherDisplay:10.37,2013-04-19 23:36:00,
2013-04-19 19:41:00,43.0,30.8,29.59,WNW,292,16.1,16.1,62,0.00,-RA,,0.21,WeatherDisplay:10.37,2013-04-19 23:41:00,
2013-04-19 19:46:00,43.0,30.8,29.59,WSW,248,19.6,19.6,62,0.00,-RA,,0.21,WeatherDisplay:10.37,2013-04-19 23:46:00,
2013-04-19 19:51:00,43.0,30.8,29.62,West,270,12.7,14.7,62,0.00,-RA,,0.21,WeatherDisplay:10.37,2013-04-19 23:51:00,
2013-04-19 19:57:00,43.2,31.0,29.62,WNW,292,18.4,18.4,62,0.00,-RA,,0.21,WeatherDisplay:10.37,2013-04-19 23:57:00,
2013-04-19 20:02:00,43.2,30.6,29.62,NW,315,15.0,15.0,61,0.00,BKN,,0.21,WeatherDisplay:10.37,2013-04-20 00:02:00,
2013-04-19 20:07:00,43.2,30.6,29.62,WNW,292,19.7,19.7,61,0.00,BKN,,0.21,WeatherDisplay:10.37,2013-04-20 00:07:00,
2013-04-19 20:12:00,43.0,30.0,29.62,WSW,248,11.5,11.5,60,0.00,BKN,,0.21,WeatherDisplay:10.37,2013-04-20 00:12:00,
2013-04-19 20:17:00,42.8,29.5,29.62,WSW,248,17.0,17.0,59,0.00,BKN,,0.21,WeatherDisplay:10.37,2013-04-20 00:17:00,
2013-04-19 20:22:00,42.8,29.0,29.62,SW,225,18.4,18.4,58,0.00,BKN,,0.21,WeatherDisplay:10.37,2013-04-20 00:22:00,
2013-04-19 20:27:00,42.8,29.0,29.62,WNW,292,19.6,19.6,58,0.00,BKN,,0.21,WeatherDisplay:10.37,2013-04-20 00:27:00,
2013-04-19 20:33:00,42.8,29.0,29.62,WNW,292,8.1,8.1,58,0.00,BKN,,0.21,WeatherDisplay:10.37,2013-04-20 00:33:00,
2013-04-19 20:38:00,42.8,29.0,29.65,WSW,248,10.4,10.4,58,0.00,BKN,,0.21,WeatherDisplay:10.37,2013-04-20 00:38:00,
2013-04-19 20:43:00,42.8,29.0,29.65,NNE,22,17.3,17.3,58,0.00,BKN,,0.21,WeatherDisplay:10.37,2013-04-20 00:43:00,
2013-04-19 20:48:00,42.6,28.9,29.65,WSW,248,15.0,15.0,58,0.00,BKN,,0.21,WeatherDisplay:10.37,2013-04-20 00:48:00,
2013-04-19 20:54:00,42.6,28.9,29.65,West,270,19.6,19.6,58,0.00,BKN,,0.21,WeatherDisplay:10.37,2013-04-20 00:54:00,
2013-04-19 20:59:00,42.6,28.9,29.65,NW,315,12.7,12.7,58,0.00,BKN,,0.21,WeatherDisplay:10.37,2013-04-20 00:59:00,
2013-04-19 21:04:00,42.4,28.3,29.65,WNW,292,13.0,13.0,57,0.00,BKN,,0.21,WeatherDisplay:10.37,2013-04-20 01:04:00,
2013-04-19 21:09:00,42.6,28.4,29.65,WNW,292,13.8,13.8,57,0.00,BKN,,0.21,WeatherDisplay:10.37,2013-04-20 01:09:00,
2013-04-19 21:14:00,42.4,27.8,29.65,WNW,292,18.7,18.7,56,0.00,BKN,,0.21,WeatherDisplay:10.37,2013-04-20 01:14:00,
2013-04-19 21:19:00,42.4,27.8,29.65,NNW,338,8.1,8.1,56,0.00,BKN,,0.21,WeatherDisplay:10.37,2013-04-20 01:19:00,
2013-04-19 21:24:00,42.4,27.8,29.68,WSW,248,6.9,9.0,56,0.00,BKN,,0.21,WeatherDisplay:10.37,2013-04-20 01:24:00,
2013-04-19 21:29:00,42.6,27.1,29.68,North,0,15.0,15.2,54,0.00,BKN,,0.21,WeatherDisplay:10.37,2013-04-20 01:29:00,
2013-04-19 21:35:00,42.8,27.3,29.68,WNW,297,12.0,25.0,54,0.00,RA,,0.21,WeatherDisplay:10.37,2013-04-20 01:35:00,
2013-04-19 21:40:00,42.8,27.3,29.68,WNW,301,9.0,15.0,54,0.00,RA,,0.21,WeatherDisplay:10.37,2013-04-20 01:40:00,
2013-04-19 21:45:00,42.8,27.3,29.68,WNW,284,7.0,17.0,54,0.00,RA,,0.21,WeatherDisplay:10.37,2013-04-20 01:45:00,
2013-04-19 21:50:00,42.8,27.3,29.68,West,272,6.0,16.0,54,0.00,RA,,0.21,WeatherDisplay:10.37,2013-04-20 01:50:00,
2013-04-19 21:55:00,42.8,26.8,29.68,West,278,10.0,16.0,53,0.00,RA,,0.21,WeatherDisplay:10.37,2013-04-20 01:55:00,
2013-04-19 22:00:00,42.8,26.4,29.68,WNW,290,10.0,23.0,52,0.00,RA,,0.21,WeatherDisplay:10.37,2013-04-20 02:00:00,
2013-04-19 22:05:00,42.8,26.4,29.68,WNW,284,7.0,13.0,52,0.00,RA,,0.21,WeatherDisplay:10.37,2013-04-20 02:05:00,
2013-04-19 22:10:00,42.8,26.4,29.68,WNW,286,12.0,15.0,52,0.00,RA,,0.21,WeatherDisplay:10.37,2013-04-20 02:10:00,
2013-04-19 22:15:00,42.8,26.4,29.68,WNW,288,7.0,22.0,52,0.00,RA,,0.21,WeatherDisplay:10.37,2013-04-20 02:15:00,
2013-04-19 22:20:00,42.8,25.9,29.68,WNW,295,12.0,21.0,51,0.00,RA,,0.21,WeatherDisplay:10.37,2013-04-20 02:20:00,
2013-04-19 22:25:00,42.8,26.4,29.71,WNW,302,7.0,17.0,52,0.00,RA,,0.21,WeatherDisplay:10.37,2013-04-20 02:25:00,
2013-04-19 22:30:00,42.8,25.9,29.71,WNW,294,12.0,19.0,51,0.00,RA,,0.21,WeatherDisplay:10.37,2013-04-20 02:30:00,
2013-04-19 22:35:00,42.8,26.4,29.71,WNW,284,9.0,19.0,52,0.00,RA,,0.21,WeatherDisplay:10.37,2013-04-20 02:35:00,
2013-04-19 22:40:00,42.8,26.4,29.71,WNW,288,9.0,18.0,52,0.00,RA,,0.21,WeatherDisplay:10.37,2013-04-20 02:40:00,
2013-04-19 22:45:00,42.7,26.3,29.71,WNW,292,9.0,23.0,52,0.00,RA,,0.21,WeatherDisplay:10.37,2013-04-20 02:45:00,
2013-04-19 22:50:00,42.6,26.2,29.71,West,274,10.0,14.0,52,0.00,RA,,0.21,WeatherDisplay:10.37,2013-04-20 02:50:00,
2013-04-19 22:55:00,42.6,25.7,29.71,West,279,10.0,28.0,51,0.00,RA,,0.21,WeatherDisplay:10.37,2013-04-20 02:55:00,
2013-04-19 23:00:00,42.6,25.3,29.71,NNW,338,15.0,15.0,50,0.00,BKN,,0.21,WeatherDisplay:10.37,2013-04-20 03:00:00,
2013-04-19 23:05:00,42.6,25.7,29.71,WNW,286,10.0,18.0,51,0.00,RA,,0.21,WeatherDisplay:10.37,2013-04-20 03:05:00,
2013-04-19 23:10:00,42.4,25.6,29.74,WNW,297,8.0,15.0,51,0.00,RA,,0.21,WeatherDisplay:10.37,2013-04-20 03:10:00,
2013-04-19 23:15:00,42.4,25.1,29.74,WNW,295,10.0,17.0,50,0.00,RA,,0.21,WeatherDisplay:10.37,2013-04-20 03:15:00,
2013-04-19 23:20:00,42.5,25.1,29.74,WNW,297,9.0,17.0,50,0.00,RA,,0.21,WeatherDisplay:10.37,2013-04-20 03:20:00,
2013-04-19 23:25:00,42.6,25.3,29.74,WNW,293,9.0,14.0,50,0.00,RA,,0.21,WeatherDisplay:10.37,2013-04-20 03:25:00,
2013-04-19 23:30:00,42.6,25.3,29.74,WNW,284,9.0,12.0,50,0.00,RA,,0.21,WeatherDisplay:10.37,2013-04-20 03:30:00,
2013-04-19 23:35:00,42.6,25.3,29.74,WNW,283,7.0,16.0,50,0.00,RA,,0.21,WeatherDisplay:10.37,2013-04-20 03:35:00,
2013-04-19 23:40:00,42.6,25.3,29.74,West,279,7.0,17.0,50,0.00,RA,,0.21,WeatherDisplay:10.37,2013-04-20 03:40:00,
2013-04-19 23:45:00,42.6,24.8,29.74,SSW,202,10.4,10.4,49,0.00,BKN,,0.21,WeatherDisplay:10.37,2013-04-20 03:45:00,
2013-04-19 23:50:00,42.6,24.8,29.74,West,276,7.0,20.0,49,0.00,RA,,0.21,WeatherDisplay:10.37,2013-04-20 03:50:00,
2013-04-19 23:55:00,42.6,24.8,29.74,West,278,12.0,16.0,49,0.00,RA,,0.21,WeatherDisplay:10.37,2013-04-20 03:55:00,